Location: Shenandoah County Park
(38.9356°N, 78.4524°W)
Time: 02:53:45
(UTC-04:00)

SR - Pass Details

Date: 15 February 2023
Orbit: 583 x 866 km, 66.7° (Epoch: 31 March)

Event Time Altitude Azimuth Distance (km) Brightness Sun altitude
Rises 12:56:18 0° 251° (WSW) 3,160 ? 38.1°
Reaches altitude 10° 12:59:34 10° 272° (W) 2,178 ? 38.0°
Maximum altitude 13:02:42 17° 311° (NW) 1,717 ? 37.8°
Drops below altitude 10° 13:05:42 10° 352° (N) 2,071 ? 37.7°
Sets 13:08:43 0° 13° (NNE) 2,933 ? 37.6°
